Location: Sebastopol
(38.4021°N, 122.8239°W)
Time: 15:18:36
(UTC+00:00)

METEOR-M - Pass Details

Date: 29 October 2020
Orbit: 815 x 820 km, 98.5° (Epoch: 01 December)

Event Time Altitude Azimuth Distance (km) Brightness Sun altitude
Rises 13:25:23 0° 6° (N) 3,351 7.3 -14.2°
Reaches altitude 10° 13:27:48 10° 2° (N) 2,415 6.5 -13.7°
Maximum altitude 13:32:56 49° 288° (WNW) 1,039 4.3 -12.7°
Drops below altitude 10° 13:38:02 10° 215° (SW) 2,398 6.3 -11.8°
Sets 13:40:25 0° 210° (SSW) 3,326 7.1 -11.3°
